Time,TemperatureF,DewpointF,PressureIn,WindDirection,WindDirectionDegrees,WindSpeedMPH,WindSpeedGustMPH,Humidity,HourlyPrecipIn,Conditions,Clouds,dailyrainin,SolarRadiationWatts/m^2,SoftwareType,DateUTC
2013-02-22 00:00:00,21.5,17.7,30.15,North,32767,0.0,0.0,85,0.00,,,0.01,0,Wunderground v.1.15,2013-02-22 05:00:00,
2013-02-22 00:02:00,21.5,17.7,30.15,North,32767,0.0,0.0,85,0.00,,,0.01,0,Wunderground v.1.15,2013-02-22 05:02:00,
2013-02-22 00:03:00,21.5,17.7,30.15,North,32767,0.0,0.0,85,0.00,,,0.01,0,Wunderground v.1.15,2013-02-22 05:03:00,
2013-02-22 07:47:00,-999.9,-99.9,29.90,North,32767,-999.0,-999.0,255,-99.99,,,0.01,,Wunderground v.1.15,2013-02-22 12:47:00,
2013-02-22 07:48:00,-999.9,-99.9,29.90,North,32767,-999.0,-999.0,255,-99.99,,,0.01,,Wunderground v.1.15,2013-02-22 12:48:00,
2013-02-22 07:53:00,-999.9,-99.9,29.90,North,32767,-999.0,-999.0,255,-99.99,,,0.01,,Wunderground v.1.15,2013-02-22 12:53:00,
2013-02-22 07:59:00,-999.9,-99.9,29.90,North,32767,-999.0,-999.0,255,-99.99,,,0.01,,Wunderground v.1.15,2013-02-22 12:59:00,
2013-02-22 08:04:00,-999.9,-99.9,29.91,North,32767,-999.0,-999.0,255,-99.99,,,0.01,,Wunderground v.1.15,2013-02-22 13:04:00,
2013-02-22 08:09:00,-999.9,-99.9,29.90,North,32767,-999.0,-999.0,255,-99.99,,,0.01,,Wunderground v.1.15,2013-02-22 13:09:00,
2013-02-22 08:14:00,-999.9,-99.9,29.89,North,32767,-999.0,-999.0,255,-99.99,,,0.01,,Wunderground v.1.15,2013-02-22 13:14:00,
2013-02-22 08:19:00,-999.9,-99.9,29.90,North,32767,-999.0,-999.0,255,-99.99,,,0.01,,Wunderground v.1.15,2013-02-22 13:19:00,
2013-02-22 08:24:00,-999.9,-99.9,29.90,North,32767,-999.0,-999.0,255,-99.99,,,0.01,,Wunderground v.1.15,2013-02-22 13:24:00,
2013-02-22 08:29:00,-999.9,-99.9,29.90,North,32767,-999.0,-999.0,255,-99.99,,,0.01,,Wunderground v.1.15,2013-02-22 13:29:00,
2013-02-22 08:34:00,-999.9,-99.9,29.89,North,32767,-999.0,-999.0,255,-99.99,,,0.01,,Wunderground v.1.15,2013-02-22 13:34:00,
2013-02-22 08:39:00,-999.9,-99.9,29.89,North,32767,-999.0,-999.0,255,-99.99,,,0.01,,Wunderground v.1.15,2013-02-22 13:39:00,
2013-02-22 08:44:00,-999.9,-99.9,29.89,North,32767,-999.0,-999.0,255,-99.99,,,0.01,,Wunderground v.1.15,2013-02-22 13:44:00,
2013-02-22 08:49:00,-999.9,-99.9,29.89,North,32767,-999.0,-999.0,255,-99.99,,,0.01,,Wunderground v.1.15,2013-02-22 13:49:00,
2013-02-22 08:54:00,-999.9,-99.9,29.89,North,32767,-999.0,-999.0,255,-99.99,,,0.01,,Wunderground v.1.15,2013-02-22 13:54:00,
2013-02-22 08:59:00,22.7,21.0,29.89,North,32767,0.0,0.0,93,0.00,,,0.01,14,Wunderground v.1.15,2013-02-22 13:59:00,
2013-02-22 09:04:00,22.8,21.1,29.89,North,32767,0.0,0.0,93,0.00,,,0.01,14,Wunderground v.1.15,2013-02-22 14:04:00,
2013-02-22 09:09:00,22.8,21.1,29.89,North,32767,0.0,0.0,93,0.00,,,0.01,14,Wunderground v.1.15,2013-02-22 14:09:00,
2013-02-22 09:14:00,22.8,21.1,29.89,North,32767,0.0,0.0,93,0.00,,,0.01,21,Wunderground v.1.15,2013-02-22 14:14:00,
2013-02-22 09:19:00,22.9,21.2,29.89,North,32767,0.0,0.0,93,0.00,,,0.01,25,Wunderground v.1.15,2013-02-22 14:19:00,
2013-02-22 09:24:00,23.0,21.3,29.89,North,32767,0.0,0.0,93,0.00,,,0.01,26,Wunderground v.1.15,2013-02-22 14:24:00,
2013-02-22 09:29:00,23.1,21.4,29.88,North,32767,0.0,0.0,93,0.00,,,0.01,40,Wunderground v.1.15,2013-02-22 14:29:00,
2013-02-22 09:34:00,23.3,21.6,29.88,North,32767,0.0,0.0,93,0.00,,,0.01,49,Wunderground v.1.15,2013-02-22 14:34:00,
2013-02-22 09:39:00,23.5,21.8,29.88,North,32767,0.0,0.0,93,0.00,,,0.01,60,Wunderground v.1.15,2013-02-22 14:39:00,
2013-02-22 09:44:00,23.8,22.1,29.88,North,32767,0.0,0.0,93,0.00,,,0.01,77,Wunderground v.1.15,2013-02-22 14:44:00,
2013-02-22 09:49:00,24.1,22.4,29.88,North,32767,0.0,0.0,93,0.00,,,0.01,67,Wunderground v.1.15,2013-02-22 14:49:00,
2013-02-22 09:54:00,24.5,22.5,29.88,North,32767,0.0,0.0,92,0.00,,,0.01,62,Wunderground v.1.15,2013-02-22 14:54:00,
2013-02-22 09:59:00,24.5,22.2,29.88,North,32767,0.0,0.0,91,0.00,,,0.01,67,Wunderground v.1.15,2013-02-22 14:59:00,
2013-02-22 10:04:00,24.5,22.2,29.88,North,32767,0.0,0.0,91,0.00,,,0.01,49,Wunderground v.1.15,2013-02-22 15:04:00,
2013-02-22 10:09:00,24.6,22.3,29.88,North,32767,0.0,0.0,91,0.00,,,0.01,60,Wunderground v.1.15,2013-02-22 15:09:00,
2013-02-22 10:14:00,24.7,22.4,29.87,North,32767,0.0,0.0,91,0.00,,,0.00,51,Wunderground v.1.15,2013-02-22 15:14:00,
2013-02-22 10:19:00,24.7,22.2,29.87,North,32767,0.0,0.0,90,0.00,,,0.00,44,Wunderground v.1.15,2013-02-22 15:19:00,
2013-02-22 10:24:00,24.8,22.5,29.86,North,32767,0.0,0.0,91,0.00,,,0.00,44,Wunderground v.1.15,2013-02-22 15:24:00,
2013-02-22 10:30:00,24.8,22.5,29.86,North,32767,0.0,0.0,91,0.00,,,0.00,40,Wunderground v.1.15,2013-02-22 15:30:00,
2013-02-22 10:34:00,24.9,22.4,29.85,North,32767,0.0,0.0,90,0.00,,,0.00,53,Wunderground v.1.15,2013-02-22 15:34:00,
2013-02-22 10:39:00,25.1,22.8,29.85,North,32767,0.0,0.0,91,0.00,,,0.00,54,Wunderground v.1.15,2013-02-22 15:39:00,
2013-02-22 10:44:00,25.1,22.6,29.84,North,32767,0.0,0.0,90,0.00,,,0.00,37,Wunderground v.1.15,2013-02-22 15:44:00,
2013-02-22 10:49:00,25.1,22.6,29.84,North,32767,0.0,0.0,90,0.00,,,0.00,33,Wunderground v.1.15,2013-02-22 15:49:00,
2013-02-22 10:54:00,25.1,22.6,29.84,North,32767,0.0,0.0,90,0.00,,,0.00,30,Wunderground v.1.15,2013-02-22 15:54:00,
2013-02-22 11:00:00,25.1,22.6,29.84,North,32767,0.0,0.0,90,0.00,,,0.00,39,Wunderground v.1.15,2013-02-22 16:00:00,
2013-02-22 11:05:00,25.1,22.8,29.84,North,32767,0.0,0.0,91,0.00,,,0.00,42,Wunderground v.1.15,2013-02-22 16:05:00,
2013-02-22 11:10:00,25.2,22.9,29.84,North,32767,0.0,0.0,91,0.00,,,0.00,32,Wunderground v.1.15,2013-02-22 16:10:00,
2013-02-22 11:15:00,25.2,22.9,29.84,North,32767,0.0,0.0,91,0.00,,,0.00,39,Wunderground v.1.15,2013-02-22 16:15:00,
2013-02-22 11:20:00,25.3,23.0,29.85,North,32767,0.0,0.0,91,0.00,,,0.00,37,Wunderground v.1.15,2013-02-22 16:20:00,
2013-02-22 11:25:00,25.4,23.1,29.84,North,32767,0.0,0.0,91,0.00,,,0.00,39,Wunderground v.1.15,2013-02-22 16:25:00,
2013-02-22 11:30:00,25.6,23.3,29.85,North,32767,0.0,0.0,91,0.00,,,0.00,47,Wunderground v.1.15,2013-02-22 16:30:00,
2013-02-22 11:35:00,25.7,23.4,29.84,North,32767,0.0,0.0,91,0.00,,,0.00,42,Wunderground v.1.15,2013-02-22 16:35:00,
2013-02-22 11:40:00,25.8,23.5,29.84,North,32767,0.0,0.0,91,0.00,,,0.00,42,Wunderground v.1.15,2013-02-22 16:40:00,
2013-02-22 11:45:00,26.0,23.7,29.84,North,32767,0.0,0.0,91,0.00,,,0.00,44,Wunderground v.1.15,2013-02-22 16:45:00,
2013-02-22 11:50:00,26.0,23.5,29.84,North,32767,0.0,0.0,90,0.00,,,0.00,49,Wunderground v.1.15,2013-02-22 16:50:00,
2013-02-22 11:55:00,26.1,23.8,29.83,North,32767,0.0,0.0,91,0.00,,,0.00,51,Wunderground v.1.15,2013-02-22 16:55:00,
2013-02-22 12:00:00,26.2,23.9,29.83,North,32767,0.0,0.0,91,0.00,,,0.00,54,Wunderground v.1.15,2013-02-22 17:00:00,
2013-02-22 12:05:00,26.4,24.1,29.83,North,32767,0.0,0.0,91,0.00,,,0.00,56,Wunderground v.1.15,2013-02-22 17:05:00,
2013-02-22 12:10:00,26.6,24.3,29.83,North,32767,0.0,0.0,91,0.00,,,0.00,53,Wunderground v.1.15,2013-02-22 17:10:00,
2013-02-22 12:15:00,26.7,24.4,29.83,North,32767,0.0,0.0,91,0.00,,,0.00,46,Wunderground v.1.15,2013-02-22 17:15:00,
2013-02-22 12:20:00,26.9,24.6,29.83,North,32767,0.0,0.0,91,0.00,,,0.00,47,Wunderground v.1.15,2013-02-22 17:20:00,
2013-02-22 12:25:00,26.9,24.9,29.83,North,32767,0.0,0.0,92,0.00,,,0.00,51,Wunderground v.1.15,2013-02-22 17:25:00,
2013-02-22 12:30:00,27.0,25.0,29.83,North,32767,0.0,0.0,92,0.00,,,0.00,47,Wunderground v.1.15,2013-02-22 17:30:00,
2013-02-22 12:35:00,27.1,25.1,29.83,North,32767,0.0,0.0,92,0.00,,,0.00,49,Wunderground v.1.15,2013-02-22 17:35:00,
2013-02-22 12:40:00,27.2,25.2,29.83,North,32767,0.0,0.0,92,0.00,,,0.00,46,Wunderground v.1.15,2013-02-22 17:40:00,
2013-02-22 12:45:00,27.3,25.5,29.83,North,32767,0.0,0.0,93,0.00,,,0.00,46,Wunderground v.1.15,2013-02-22 17:45:00,
2013-02-22 12:50:00,27.4,25.6,29.83,North,32767,0.0,0.0,93,0.00,,,0.00,46,Wunderground v.1.15,2013-02-22 17:50:00,
2013-02-22 12:55:00,27.4,25.6,29.83,North,32767,0.0,0.0,93,0.00,,,0.00,44,Wunderground v.1.15,2013-02-22 17:55:00,
2013-02-22 13:00:00,27.5,25.7,29.82,North,32767,0.0,0.0,93,0.00,,,0.00,51,Wunderground v.1.15,2013-02-22 18:00:00,
2013-02-22 13:05:00,27.6,25.8,29.81,North,32767,0.0,0.0,93,0.00,,,0.00,44,Wunderground v.1.15,2013-02-22 18:05:00,
2013-02-22 13:10:00,27.7,25.9,29.82,North,32767,0.0,0.0,93,0.00,,,0.00,44,Wunderground v.1.15,2013-02-22 18:10:00,
2013-02-22 13:15:00,27.8,26.0,29.81,North,32767,0.0,0.0,93,0.00,,,0.00,40,Wunderground v.1.15,2013-02-22 18:15:00,
2013-02-22 13:20:00,27.9,26.1,29.81,North,32767,0.0,0.0,93,0.00,,,0.00,42,Wunderground v.1.15,2013-02-22 18:20:00,
2013-02-22 13:25:00,28.0,26.2,29.81,North,32767,0.0,0.0,93,0.00,,,0.00,42,Wunderground v.1.15,2013-02-22 18:25:00,
2013-02-22 13:30:00,28.1,26.3,29.80,North,32767,0.0,0.0,93,0.00,,,0.00,42,Wunderground v.1.15,2013-02-22 18:30:00,
2013-02-22 13:35:00,28.2,26.4,29.80,North,32767,0.0,0.0,93,0.00,,,0.00,37,Wunderground v.1.15,2013-02-22 18:35:00,
2013-02-22 13:40:00,28.3,26.5,29.80,North,32767,0.0,0.0,93,0.00,,,0.00,30,Wunderground v.1.15,2013-02-22 18:40:00,
2013-02-22 13:45:00,28.3,26.5,29.80,North,32767,0.0,0.0,93,0.00,,,0.00,35,Wunderground v.1.15,2013-02-22 18:45:00,
2013-02-22 13:50:00,28.3,26.5,29.80,North,32767,0.0,0.0,93,0.00,,,0.00,37,Wunderground v.1.15,2013-02-22 18:50:00,
2013-02-22 13:55:00,28.4,26.9,29.80,North,32767,0.0,0.0,94,0.00,,,0.00,30,Wunderground v.1.15,2013-02-22 18:55:00,
2013-02-22 14:00:00,28.5,27.0,29.80,North,32767,0.0,0.0,94,0.00,,,0.00,30,Wunderground v.1.15,2013-02-22 19:00:00,
2013-02-22 14:05:00,28.5,27.0,29.80,North,32767,0.0,0.0,94,0.00,,,0.00,33,Wunderground v.1.15,2013-02-22 19:05:00,
2013-02-22 14:10:00,28.7,27.2,29.79,North,32767,0.0,0.0,94,0.00,,,0.00,37,Wunderground v.1.15,2013-02-22 19:10:00,
2013-02-22 14:15:00,28.8,27.5,29.79,North,32767,0.0,0.0,95,0.00,,,0.00,35,Wunderground v.1.15,2013-02-22 19:15:00,
2013-02-22 14:20:00,28.9,27.6,29.80,North,32767,0.0,0.0,95,0.00,,,0.00,28,Wunderground v.1.15,2013-02-22 19:20:00,
2013-02-22 14:25:00,29.0,27.7,29.79,North,32767,0.0,0.0,95,0.00,,,0.00,30,Wunderground v.1.15,2013-02-22 19:25:00,
2013-02-22 14:30:00,29.0,27.7,29.79,North,32767,0.0,0.0,95,0.00,,,0.00,37,Wunderground v.1.15,2013-02-22 19:30:00,
2013-02-22 14:35:00,29.2,27.9,29.79,North,32767,0.0,0.0,95,0.00,,,0.00,39,Wunderground v.1.15,2013-02-22 19:35:00,
2013-02-22 14:40:00,29.3,28.0,29.80,North,32767,0.0,0.0,95,0.00,,,0.00,33,Wunderground v.1.15,2013-02-22 19:40:00,
2013-02-22 14:45:00,29.4,28.1,29.80,North,32767,0.0,0.0,95,0.00,,,0.00,37,Wunderground v.1.15,2013-02-22 19:45:00,
2013-02-22 14:50:00,29.4,28.1,29.80,North,32767,0.0,0.0,95,0.00,,,0.00,35,Wunderground v.1.15,2013-02-22 19:50:00,
2013-02-22 14:55:00,29.5,28.2,29.80,North,32767,0.0,0.0,95,0.00,,,0.00,28,Wunderground v.1.15,2013-02-22 19:55:00,
2013-02-22 15:00:00,29.6,28.3,29.80,North,32767,0.0,0.0,95,0.00,,,0.00,30,Wunderground v.1.15,2013-02-22 20:00:00,
2013-02-22 15:05:00,29.6,28.3,29.79,North,32767,0.0,0.0,95,0.00,,,0.00,28,Wunderground v.1.15,2013-02-22 20:05:00,
2013-02-22 15:10:00,29.7,28.4,29.79,North,32767,0.0,0.0,95,0.00,,,0.00,32,Wunderground v.1.15,2013-02-22 20:10:00,
2013-02-22 15:15:00,29.7,28.4,29.79,North,32767,0.0,0.0,95,0.00,,,0.00,28,Wunderground v.1.15,2013-02-22 20:15:00,
2013-02-22 15:20:00,29.8,28.8,29.79,North,32767,0.0,0.0,96,0.00,,,0.00,28,Wunderground v.1.15,2013-02-22 20:20:00,
2013-02-22 15:25:00,29.8,28.5,29.79,North,32767,0.0,0.0,95,0.00,,,0.00,26,Wunderground v.1.15,2013-02-22 20:25:00,
2013-02-22 15:30:00,29.9,28.6,29.79,North,32767,0.0,0.0,95,0.00,,,0.00,26,Wunderground v.1.15,2013-02-22 20:30:00,
2013-02-22 15:36:00,29.9,28.6,29.79,North,32767,0.0,0.0,95,0.00,,,0.00,23,Wunderground v.1.15,2013-02-22 20:36:00,
2013-02-22 15:41:00,29.9,28.9,29.79,North,32767,0.0,0.0,96,0.00,,,0.00,26,Wunderground v.1.15,2013-02-22 20:41:00,
2013-02-22 15:46:00,30.0,29.0,29.79,North,32767,0.0,0.0,96,0.00,,,0.00,23,Wunderground v.1.15,2013-02-22 20:46:00,
2013-02-22 15:51:00,30.1,29.1,29.79,North,32767,0.0,0.0,96,0.00,,,0.00,25,Wunderground v.1.15,2013-02-22 20:51:00,
2013-02-22 15:56:00,30.1,28.8,29.79,North,32767,0.0,0.0,95,0.00,,,0.00,25,Wunderground v.1.15,2013-02-22 20:56:00,
2013-02-22 16:01:00,30.1,29.1,29.79,North,32767,0.0,0.0,96,0.00,,,0.00,18,Wunderground v.1.15,2013-02-22 21:01:00,
2013-02-22 16:06:00,30.1,29.1,29.79,North,32767,0.0,0.0,96,0.00,,,0.00,16,Wunderground v.1.15,2013-02-22 21:06:00,
2013-02-22 16:11:00,30.1,29.1,29.79,North,32767,0.0,0.0,96,0.00,,,0.00,12,Wunderground v.1.15,2013-02-22 21:11:00,
2013-02-22 16:16:00,30.1,29.1,29.79,North,32767,0.0,0.0,96,0.00,,,0.00,16,Wunderground v.1.15,2013-02-22 21:16:00,
2013-02-22 16:21:00,30.1,29.1,29.79,North,32767,0.0,0.0,96,0.00,,,0.00,16,Wunderground v.1.15,2013-02-22 21:21:00,
2013-02-22 16:26:00,30.2,29.2,29.79,North,32767,0.0,0.0,96,0.00,,,0.00,16,Wunderground v.1.15,2013-02-22 21:26:00,
2013-02-22 16:31:00,30.2,29.2,29.79,North,32767,0.0,0.0,96,0.00,,,0.00,16,Wunderground v.1.15,2013-02-22 21:31:00,
2013-02-22 16:36:00,30.3,29.3,29.79,North,32767,0.0,0.0,96,0.00,,,0.00,14,Wunderground v.1.15,2013-02-22 21:36:00,
2013-02-22 16:41:00,30.2,29.2,29.79,North,32767,0.0,0.0,96,0.00,,,0.00,14,Wunderground v.1.15,2013-02-22 21:41:00,
2013-02-22 16:46:00,30.3,29.3,29.79,North,32767,0.0,0.0,96,0.00,,,0.00,12,Wunderground v.1.15,2013-02-22 21:46:00,
2013-02-22 16:51:00,30.3,29.3,29.79,North,32767,0.0,0.0,96,0.00,,,0.00,12,Wunderground v.1.15,2013-02-22 21:51:00,
2013-02-22 16:56:00,30.4,29.4,29.79,North,32767,0.0,0.0,96,0.00,,,0.00,12,Wunderground v.1.15,2013-02-22 21:56:00,
2013-02-22 17:01:00,30.4,29.4,29.79,North,32767,0.0,0.0,96,0.00,,,0.00,9,Wunderground v.1.15,2013-02-22 22:01:00,
2013-02-22 17:06:00,30.5,29.5,29.79,North,32767,0.0,0.0,96,0.00,,,0.00,9,Wunderground v.1.15,2013-02-22 22:06:00,
2013-02-22 17:11:00,30.5,29.5,29.79,North,32767,0.0,0.0,96,0.00,,,0.00,9,Wunderground v.1.15,2013-02-22 22:11:00,
2013-02-22 17:16:00,30.6,29.6,29.79,North,32767,0.0,0.0,96,0.00,,,0.00,9,Wunderground v.1.15,2013-02-22 22:16:00,
2013-02-22 17:21:00,30.6,29.6,29.79,North,32767,0.0,0.0,96,0.00,,,0.00,7,Wunderground v.1.15,2013-02-22 22:21:00,
2013-02-22 17:26:00,30.6,29.6,29.79,North,32767,0.0,0.0,96,0.00,,,0.00,7,Wunderground v.1.15,2013-02-22 22:26:00,
2013-02-22 17:31:00,30.6,29.6,29.79,North,32767,0.0,0.0,96,0.00,,,0.00,5,Wunderground v.1.15,2013-02-22 22:31:00,
2013-02-22 17:36:00,30.6,29.6,29.79,North,32767,0.0,0.0,96,0.00,,,0.00,5,Wunderground v.1.15,2013-02-22 22:36:00,
2013-02-22 17:41:00,30.7,29.7,29.79,North,32767,0.0,0.0,96,0.00,,,0.00,5,Wunderground v.1.15,2013-02-22 22:41:00,
2013-02-22 17:47:00,30.7,29.7,29.80,North,32767,0.0,0.0,96,0.00,,,0.00,0,Wunderground v.1.15,2013-02-22 22:47:00,
2013-02-22 17:53:00,30.7,30.0,29.80,North,32767,0.0,0.0,97,0.00,,,0.00,0,Wunderground v.1.15,2013-02-22 22:53:00,
2013-02-22 17:59:00,30.7,30.0,29.80,North,32767,0.0,0.0,97,0.00,,,0.00,0,Wunderground v.1.15,2013-02-22 22:59:00,
2013-02-22 18:05:00,30.8,30.0,29.80,North,32767,0.0,0.0,97,0.00,,,0.00,0,Wunderground v.1.15,2013-02-22 23:05:00,
2013-02-22 18:10:00,30.8,30.0,29.80,North,32767,0.0,0.0,97,0.00,,,0.00,0,Wunderground v.1.15,2013-02-22 23:10:00,
2013-02-22 18:15:00,30.8,30.0,29.80,North,32767,0.0,0.0,97,0.00,,,0.00,0,Wunderground v.1.15,2013-02-22 23:15:00,
2013-02-22 18:20:00,30.8,30.0,29.80,North,32767,0.0,0.0,97,0.00,,,0.00,0,Wunderground v.1.15,2013-02-22 23:20:00,
2013-02-22 18:25:00,30.9,30.1,29.80,North,32767,0.0,0.0,97,0.00,,,0.00,0,Wunderground v.1.15,2013-02-22 23:25:00,
2013-02-22 18:30:00,30.9,30.1,29.80,North,32767,0.0,0.0,97,0.00,,,0.00,0,Wunderground v.1.15,2013-02-22 23:30:00,
2013-02-22 18:35:00,30.9,30.1,29.80,North,32767,0.0,0.0,97,0.00,,,0.00,0,Wunderground v.1.15,2013-02-22 23:35:00,
2013-02-22 18:40:00,31.0,30.2,29.80,North,32767,0.0,0.0,97,0.00,,,0.00,0,Wunderground v.1.15,2013-02-22 23:40:00,
2013-02-22 18:45:00,31.0,30.2,29.80,North,32767,0.0,0.0,97,0.00,,,0.00,0,Wunderground v.1.15,2013-02-22 23:45:00,
2013-02-22 18:50:00,31.0,30.2,29.80,North,32767,0.0,0.0,97,0.00,,,0.00,0,Wunderground v.1.15,2013-02-22 23:50:00,
2013-02-22 18:55:00,31.1,30.3,29.81,North,32767,0.0,0.0,97,0.00,,,0.00,0,Wunderground v.1.15,2013-02-22 23:55:00,
2013-02-22 19:00:00,31.1,30.3,29.81,North,32767,0.0,0.0,97,0.00,,,0.00,0,Wunderground v.1.15,2013-02-23 00:00:00,
2013-02-22 19:05:00,31.2,30.4,29.81,North,32767,0.0,0.0,97,0.00,,,0.00,0,Wunderground v.1.15,2013-02-23 00:05:00,
2013-02-22 19:10:00,31.2,30.4,29.81,North,32767,0.0,0.0,97,0.00,,,0.00,0,Wunderground v.1.15,2013-02-23 00:10:00,
2013-02-22 19:15:00,31.2,30.4,29.81,North,32767,0.0,0.0,97,0.00,,,0.00,0,Wunderground v.1.15,2013-02-23 00:15:00,
2013-02-22 19:20:00,31.2,30.4,29.81,North,32767,0.0,0.0,97,0.00,,,0.00,0,Wunderground v.1.15,2013-02-23 00:20:00,
2013-02-22 19:25:00,31.4,30.6,29.81,North,32767,0.0,0.0,97,0.00,,,0.00,0,Wunderground v.1.15,2013-02-23 00:25:00,
2013-02-22 19:30:00,31.4,30.6,29.81,North,32767,0.0,0.0,97,0.00,,,0.00,0,Wunderground v.1.15,2013-02-23 00:30:00,
2013-02-22 19:35:00,31.4,30.6,29.81,North,32767,0.0,0.0,97,0.00,,,0.00,0,Wunderground v.1.15,2013-02-23 00:35:00,
2013-02-22 19:40:00,31.5,30.7,29.81,North,32767,0.0,0.0,97,0.00,,,0.00,0,Wunderground v.1.15,2013-02-23 00:40:00,
2013-02-22 19:45:00,31.5,30.7,29.81,North,32767,0.0,0.0,97,0.00,,,0.00,0,Wunderground v.1.15,2013-02-23 00:45:00,
2013-02-22 19:50:00,31.6,30.8,29.80,North,32767,0.0,0.0,97,0.00,,,0.00,0,Wunderground v.1.15,2013-02-23 00:50:00,
2013-02-22 19:55:00,31.6,30.8,29.81,North,32767,0.0,0.0,97,0.00,,,0.00,0,Wunderground v.1.15,2013-02-23 00:55:00,
2013-02-22 20:00:00,31.7,30.9,29.80,North,32767,0.0,0.0,97,0.00,,,0.00,0,Wunderground v.1.15,2013-02-23 01:00:00,
2013-02-22 20:05:00,31.8,31.0,29.80,North,32767,0.0,0.0,97,0.00,,,0.00,0,Wunderground v.1.15,2013-02-23 01:05:00,
2013-02-22 20:11:00,31.9,31.1,29.80,North,32767,0.0,0.0,97,0.00,,,0.00,0,Wunderground v.1.15,2013-02-23 01:11:00,
2013-02-22 20:16:00,31.9,31.4,29.80,North,32767,0.0,0.0,98,0.00,,,0.00,0,Wunderground v.1.15,2013-02-23 01:16:00,
2013-02-22 20:20:00,31.9,31.4,29.80,North,32767,0.0,0.0,98,0.00,,,0.00,0,Wunderground v.1.15,2013-02-23 01:20:00,
2013-02-22 20:25:00,32.0,31.5,29.80,North,32767,0.0,0.0,98,0.00,,,0.00,0,Wunderground v.1.15,2013-02-23 01:25:00,
2013-02-22 20:31:00,32.1,31.6,29.80,North,32767,0.0,0.0,98,0.00,,,0.00,0,Wunderground v.1.15,2013-02-23 01:31:00,
2013-02-22 20:36:00,32.1,31.6,29.80,North,32767,0.0,0.0,98,0.00,,,0.00,0,Wunderground v.1.15,2013-02-23 01:36:00,
2013-02-22 20:41:00,32.1,31.3,29.80,North,32767,0.0,0.0,97,0.00,,,0.00,0,Wunderground v.1.15,2013-02-23 01:41:00,
2013-02-22 20:46:00,32.1,31.3,29.80,North,32767,0.0,0.0,97,0.00,,,0.00,0,Wunderground v.1.15,2013-02-23 01:46:00,
2013-02-22 20:51:00,32.2,31.4,29.80,North,32767,0.0,0.0,97,0.00,,,0.00,0,Wunderground v.1.15,2013-02-23 01:51:00,
2013-02-22 20:56:00,32.3,31.5,29.80,North,32767,0.0,0.0,97,0.00,,,0.00,0,Wunderground v.1.15,2013-02-23 01:56:00,
2013-02-22 21:01:00,32.3,31.5,29.80,North,32767,0.0,0.0,97,0.00,,,0.00,0,Wunderground v.1.15,2013-02-23 02:01:00,
2013-02-22 21:06:00,32.3,31.5,29.81,North,32767,0.0,0.0,97,0.00,,,0.00,0,Wunderground v.1.15,2013-02-23 02:06:00,
2013-02-22 21:11:00,32.3,31.5,29.80,North,32767,0.0,0.0,97,0.00,,,0.00,0,Wunderground v.1.15,2013-02-23 02:11:00,
2013-02-22 21:16:00,32.3,31.5,29.80,North,32767,0.0,0.0,97,0.00,,,0.00,0,Wunderground v.1.15,2013-02-23 02:16:00,
2013-02-22 21:21:00,32.3,31.5,29.80,North,32767,0.0,0.0,97,0.00,,,0.00,0,Wunderground v.1.15,2013-02-23 02:21:00,
2013-02-22 21:26:00,32.3,31.5,29.80,North,32767,0.0,0.0,97,0.00,,,0.00,0,Wunderground v.1.15,2013-02-23 02:26:00,
2013-02-22 21:31:00,32.3,31.5,29.80,North,32767,0.0,0.0,97,0.00,,,0.00,0,Wunderground v.1.15,2013-02-23 02:31:00,
2013-02-22 21:36:00,32.3,31.5,29.80,North,32767,0.0,0.0,97,0.00,,,0.00,0,Wunderground v.1.15,2013-02-23 02:36:00,
2013-02-22 21:41:00,32.4,31.6,29.81,North,32767,0.0,0.0,97,0.00,,,0.00,0,Wunderground v.1.15,2013-02-23 02:41:00,
2013-02-22 21:46:00,32.4,31.6,29.81,North,32767,0.0,0.0,97,0.00,,,0.00,0,Wunderground v.1.15,2013-02-23 02:46:00,
2013-02-22 21:51:00,32.4,31.6,29.81,North,32767,0.0,0.0,97,0.00,,,0.00,0,Wunderground v.1.15,2013-02-23 02:51:00,
2013-02-22 21:56:00,32.4,31.6,29.81,North,32767,0.0,0.0,97,0.00,,,0.00,0,Wunderground v.1.15,2013-02-23 02:56:00,
2013-02-22 22:01:00,32.4,31.6,29.81,North,32767,0.0,0.0,97,0.00,,,0.00,0,Wunderground v.1.15,2013-02-23 03:01:00,
2013-02-22 22:06:00,32.4,31.6,29.81,North,32767,0.0,0.0,97,0.00,,,0.00,0,Wunderground v.1.15,2013-02-23 03:06:00,
2013-02-22 22:11:00,32.4,31.6,29.81,North,32767,0.0,0.0,97,0.00,,,0.00,0,Wunderground v.1.15,2013-02-23 03:11:00,
2013-02-22 22:16:00,32.3,31.5,29.81,North,32767,0.0,0.0,97,0.00,,,0.00,0,Wunderground v.1.15,2013-02-23 03:16:00,
2013-02-22 22:21:00,32.3,31.5,29.81,North,32767,0.0,0.0,97,0.00,,,0.00,0,Wunderground v.1.15,2013-02-23 03:21:00,
2013-02-22 22:27:00,32.2,31.4,29.81,North,32767,0.0,0.0,97,0.00,,,0.00,0,Wunderground v.1.15,2013-02-23 03:27:00,
2013-02-22 22:31:00,32.2,31.4,29.81,North,32767,0.0,0.0,97,0.00,,,0.00,0,Wunderground v.1.15,2013-02-23 03:31:00,
2013-02-22 22:37:00,32.1,31.3,29.80,North,32767,0.0,0.0,97,0.00,,,0.00,0,Wunderground v.1.15,2013-02-23 03:37:00,
2013-02-22 22:42:00,32.0,31.2,29.80,North,32767,0.0,0.0,97,0.00,,,0.00,0,Wunderground v.1.15,2013-02-23 03:42:00,
2013-02-22 22:47:00,32.0,31.2,29.80,North,32767,0.0,0.0,97,0.00,,,0.00,0,Wunderground v.1.15,2013-02-23 03:47:00,
2013-02-22 22:52:00,32.0,31.2,29.80,North,32767,0.0,0.0,97,0.00,,,0.00,0,Wunderground v.1.15,2013-02-23 03:52:00,
2013-02-22 22:57:00,32.0,31.2,29.80,North,32767,0.0,0.0,97,0.00,,,0.00,0,Wunderground v.1.15,2013-02-23 03:57:00,
2013-02-22 23:02:00,31.9,30.9,29.80,North,32767,0.0,0.0,96,0.00,,,0.00,0,Wunderground v.1.15,2013-02-23 04:02:00,
2013-02-22 23:07:00,31.9,30.9,29.80,North,32767,0.0,0.0,96,0.00,,,0.00,0,Wunderground v.1.15,2013-02-23 04:07:00,
2013-02-22 23:12:00,31.9,30.9,29.80,North,32767,0.0,0.0,96,0.00,,,0.00,0,Wunderground v.1.15,2013-02-23 04:12:00,
2013-02-22 23:17:00,31.9,30.9,29.80,North,32767,0.0,0.0,96,0.00,,,0.00,0,Wunderground v.1.15,2013-02-23 04:17:00,
2013-02-22 23:22:00,31.9,30.9,29.80,North,32767,0.0,0.0,96,0.00,,,0.00,0,Wunderground v.1.15,2013-02-23 04:22:00,
2013-02-22 23:27:00,31.9,30.9,29.80,North,32767,0.0,0.0,96,0.00,,,0.00,0,Wunderground v.1.15,2013-02-23 04:27:00,
2013-02-22 23:32:00,32.0,31.0,29.80,North,32767,0.0,0.0,96,0.00,,,0.00,0,Wunderground v.1.15,2013-02-23 04:32:00,
2013-02-22 23:37:00,32.0,31.0,29.80,North,32767,0.0,0.0,96,0.00,,,0.00,0,Wunderground v.1.15,2013-02-23 04:37:00,
2013-02-22 23:42:00,32.0,31.0,29.80,North,32767,0.0,0.0,96,0.00,,,0.00,0,Wunderground v.1.15,2013-02-23 04:42:00,
2013-02-22 23:47:00,32.0,31.0,29.80,North,32767,0.0,0.0,96,0.00,,,0.00,0,Wunderground v.1.15,2013-02-23 04:47:00,
2013-02-22 23:52:00,32.0,31.0,29.80,North,32767,0.0,0.0,96,0.00,,,0.00,0,Wunderground v.1.15,2013-02-23 04:52:00,
2013-02-22 23:57:00,32.0,30.7,29.80,North,32767,0.0,0.0,95,0.00,,,0.00,0,Wunderground v.1.15,2013-02-23 04:57:00,